Погода в Лудзе

Латвия     56°32′35″N   27°42′47″E
темп.,
°C
ветер,
м/с
пор.,
м/с
влажн.,
%
обл.,
%
осадки,
мм/ч
давл.,
гПа
погр.,
м
7 марта, вс
вс723:00−1зюз81768100 0.0 10051136
02:000зюз81684100 0.1 10011283
05:00−1сз81391100 2.2 9991167
08:00−3юз3683100 2.7 997353
11:00−1зсз91762100 1.4 9972255
14:00−1зсз8154485 1.6 9982351
17:00−2зсз7146498 0.1 9991840
20:00−4з6127998 0.1 9991149
8 марта, пн
пн823:00−5зсз51089100 0.4 1000795
02:00−5сз4991100 0.9 1002724
05:00−7ссз4108544 0.1 1004593
08:00−7ссз598672 0.2 1008834
11:00−6ссз5771100 0.2 1010837
14:00−5ссз586699 0.2 1013926
17:00−5ссз476761 0.0 10141040
20:00−8с298230 0.0 1017436
9 марта, вт
вт923:00−10ссз27854 0.0 1018330
02:00−11сз25902 0.0 1019216
05:00−11сз22930 0.0 102076
08:00−10зсз138514 0.0 1021141
11:00−5з226376 0.0 1021599
14:00−4зюз345983 0.0 1021833
17:00−3зюз3862100 0.0 1019873
20:00−4зюз41167100 0.0 1019497
10 марта, ср
ср1023:00−4зюз41267100 0.0 1018549
02:00−4зюз41177100 0.0 1018491
05:00−4зюз41080100 0.0 1018506
08:00−4зюз4880100 0.1 1019441
11:00−3зюз259197 1.2 1020383
14:00−1зсз128999 2.7 1020313
17:00−3св3690100 1.0 1020329
20:00−5всв3695100 1.4 1020308
11 марта, чт
чт1123:00−6св249399 1.3 1020248
02:00−9ссв249697 1.3 1020147
05:00−9св129599 0.1 1020110
08:00−8юв119195 0.1 1019103
11:00−3ю257990 0.0 1018675
14:00−1ю476991 0.1 10151017
17:00−1ююв4975100 0.0 1013965
20:00−2ю71568100 0.0 1010905